STARLINK-34871, 65217

Orbit data source: Space-Track

STARLINK-34871, 65217 is a payload satellite owned by SpaceX/Seattle (US) in LEO that was launched on Thu, 14 Aug 2025 UTC via an FALCON 9 launch vehicle from the Air Force Eastern Test Range (AFETR). Payload-class satellites include a variety of spacecraft equipped with specific instruments for various scientific and technological missions. These include communications satellites like Starlink; space stations such as the ISS; scientific satellites like the Hubble; Earth observation satellites from companies like Planet Labs, Umbra, and HawkEye 360; GPS; miniature CubeSats for education and research; and military/defense satellites.

Loading next visibility...
Identifier
65217, 2025-176V
Orbit
LEO
Country
Flag of USUS
Related business
Manufacturer
SpaceX/Seattle
Mission
Operational Commercial Communications
Bus & Motor
STARLINK V2MO, Unknown motor
Mass
575 kg wet, ~530 kg dry
Launch date (UTC)
2025-08-14 (10 months ago)
Launch vehicle
FALCON 9
Launch site
Air Force Eastern Test Range (AFETR)
Object type
Payload
Rocket body
Debris
Shape & HBR
Box + 2 Pan, 17.7 m
Radar Cross Section
36.964 m², Large (>1 m²)

Expand to show TLE details & history
Last TLE update: 23 hours ago

TLE from 23 hours ago
0 STARLINK-34871
1 65217U 25176V   26170.90869856  .00018326  00000-0  55193-3 0  9995
2 65217  53.1585  36.2994 0002504  91.0899 269.0391 15.34415256 48794
Epoch: 2026-06-19T21:48Z
TLE epoch observation values (Epoch: 2026-06-19T21:48:31.555Z)
Latitude
0.00001°
Longitude
161.03701°
Altitude
463.588 km
Speed
7.636 km/s
True Right ascension
02h 25m 11s
True Declination
0° 00' 00"
Sunlit
Object was in daylight at epoch
Visualization orbit readout
Latitude
Unknown
Longitude
Unknown
Altitude
Unknown
Speed
Unknown
Apparent Right ascension
Unknown
Apparent Declination
Unknown
Sunlit
N/A
Visualization observer readout
Local Sidereal Time
07:20:52
Azimuth
Unknown
Elevation
Unknown
Doppler factor
Unknown
Orbital elements
Apogee altitude
464.628 km
Perigee altitude
461.202 km
Semi-major axis
6,841.052 km
Eccentricity
0.00025
Inclination
53.1585°
RAAN
36.2994°
Arg. of periapsis
91.0899°
True anomaly
269.01041°
Mean anomaly
269.0391°
Eccentric anomaly
269.02476°
Mean motion
3.83583 °/min
Orbital period
93.85 mins
BSTAR
0.00055193
Loading maneuver chart data...
Computing Atmospheric mass density...
Loading historical data...
Loading historical data...
Loading historical data...
Loading historical data...
Loading historical data...
Loading historical data...
Loading historical data...

Documentation

Showing up to 5 results
|